Agadir Al Massira, Morocco

6:10 PM WET on March 25, 2017 (GMT +0000)
Al-Massira

Weather History for GMAD - September, 2012

Change the Weather History Date:

Saturday, September 15, 2012

  Actual Average Record
Temperature  
Mean Temperature 72 °F -  
Max Temperature 81 °F - - ()
Min Temperature 63 °F - - ()
Cooling Degree Days 7    
Growing Degree Days 22 (Base 50)    
Moisture  
Dew Point 63 °F    
Average Humidity 72    
Maximum Humidity 88    
Minimum Humidity 48    
Precipitation  
Precipitation 0.00 in - - ()
Sea Level Pressure  
Sea Level Pressure 29.93 in    
Wind  
Wind Speed 5 mph ()    
Max Wind Speed 15 mph    
Max Gust Speed -    
Visibility 4.7 miles    
Events      
T = Trace of Precipitation, MM = Missing Value Source: Averaged Metar Reports

Daily Weather History Graph

Daily Weather History Graph

Search for Another Location

Airport or City:

Trip Planner

Search our weather history database for the weather conditions in past years. The results will help you decide how hot, cold, wet, or windy it might be!

Date:

Astronomy

Sep. 15, 2012 Rise Set
Actual Time 7:22 AM WEST 7:42 PM WEST
Civil Twilight 6:58 AM WEST 8:06 PM WEST
Nautical Twilight 6:30 AM WEST 8:34 PM WEST
Astronomical Twilight 6:01 AM WEST 9:03 PM WEST
Moon 6:37 AM WEST (9/15) 7:08 PM WEST (9/15)
Length of Visible Light 13h 08m
Length of Day
12h 20m
Waning Crescent, 1% of the Moon is Illuminated
Sep 15
Waning Crescent
Sep 16
New
Sep 22
First Quarter
Sep 30
Full
Oct 8
Last Quarter

Hourly Weather History & Observations

Time (WEST) Temp. Heat Index Dew Point Humidity Pressure Visibility Wind Dir Wind Speed Gust Speed Precip Events Conditions
12:00 AM 71.6 °F - 64.4 °F 78% 29.98 in 3.7 mi ESE 4.6 mph - N/A   Mostly Cloudy
1:00 AM 69 °F - 62 °F 72% 29.96 in 5 mi ENE 4.6 mph - -   Mostly Cloudy
1:00 AM 69.8 °F - 62.6 °F 78% 29.95 in 5.0 mi East 5.8 mph - N/A   Scattered Clouds
2:00 AM 68.0 °F - 60.8 °F 78% 29.95 in 5.0 mi East 4.6 mph - N/A   Scattered Clouds
3:00 AM 66.2 °F - 60.8 °F 83% 29.92 in 5.0 mi ENE 3.5 mph - N/A   Scattered Clouds
4:00 AM 66 °F - 61 °F 78% 29.91 in 5 mi ESE 2.3 mph - -   Partly Cloudy
4:00 AM 66.2 °F - 60.8 °F 83% 29.89 in 5.0 mi ESE 2.3 mph - N/A   Scattered Clouds
7:00 AM 64 °F - 60 °F 84% 29.92 in 4 mi SSW 3.5 mph - -   Partly Cloudy
7:00 AM 64.4 °F - 60.8 °F 88% 29.89 in 5.0 mi South 4.6 mph - N/A   Scattered Clouds
8:00 AM 66.2 °F - 60.8 °F 83% 29.92 in 3.7 mi South 3.5 mph - N/A   Mostly Cloudy
9:00 AM 69.8 °F - 64.4 °F 83% 29.95 in 3.7 mi SW 2.3 mph - N/A   Mostly Cloudy
10:00 AM 71 °F - 64 °F 71% 29.96 in 4 mi South 2.3 mph - -   Overcast
10:00 AM 71.6 °F - 64.4 °F 78% 29.95 in 3.7 mi Variable 2.3 mph - N/A   Mostly Cloudy
11:00 AM 73.4 °F - 62.6 °F 69% 29.95 in 3.7 mi WSW 3.5 mph - N/A   Mostly Cloudy
12:00 PM 77.0 °F - 62.6 °F 61% 29.95 in 5.0 mi Variable 4.6 mph - N/A   Scattered Clouds
1:00 PM 80 °F - 64 °F 48% 29.91 in 5 mi West 4.6 mph - -   Scattered Clouds
2:00 PM 82.4 °F 83.9 °F 64.4 °F 54% 29.89 in 5.0 mi West 9.2 mph - N/A   Partly Cloudy
3:00 PM 80.6 °F 82.3 °F 64.4 °F 58% 29.89 in 6.2 mi West 12.7 mph - N/A   Partly Cloudy
4:00 PM 80 °F - 64 °F 48% 29.88 in 5 mi West 13.8 mph - -   Scattered Clouds
5:00 PM 78.8 °F - 64.4 °F 61% 29.89 in 5.0 mi West 13.8 mph - N/A   Partly Cloudy
6:00 PM 75.2 °F - 62.6 °F 65% 29.89 in 6.2 mi West 15.0 mph - N/A   Partly Cloudy
7:00 PM 71 °F - 63 °F 70% 29.92 in 5 mi West 11.5 mph - -   Partly Cloudy
7:00 PM 71.6 °F - 62.6 °F 73% 29.92 in 5.0 mi West 11.5 mph - N/A   Scattered Clouds
8:00 PM 71.6 °F - 62.6 °F 73% 29.92 in 3.7 mi WSW 9.2 mph - N/A   Mostly Cloudy
9:00 PM 69.8 °F - 62.6 °F 78% 29.95 in 3.7 mi WSW 6.9 mph - N/A   Mostly Cloudy
10:00 PM 70 °F - 63 °F 73% 29.98 in 5 mi SW 2.3 mph - -   Mostly Cloudy
10:00 PM 69.8 °F - 62.6 °F 78% 29.98 in 5.0 mi Variable 2.3 mph - N/A   Mostly Cloudy
11:00 PM 69.8 °F - 62.6 °F 78% 29.98 in 5.0 mi SSE 3.5 mph - N/A   Mostly Cloudy